Tracking 28091 objects as of 29-Sep-2023
HD Live streaming from Space Station
objects crossing your sky now

STARLINK-3709

Track STARLINK-3709 now!
10-day predictions
STARLINK-3709 is classified as:


NORAD ID: 52102
Int'l Code: 2022-029Q
Perigee: 545.8 km
Apogee: 547.9 km
Inclination: 53.2 °
Period: 95.4 minutes
Semi major axis: 6917 km
RCS: Unknown
Launch date: March 19, 2022
Source: United States (US)
Launch site: AIR FORCE EASTERN TEST RANGE (AFETR)
Your satellite tracking list
Your tracking list is empty




NASA's NSSDC Master Catalog

Two Line Element Set (TLE):
1 52102U 22029Q   23271.81420263  .00005205  00000-0  34483-3 0  9993
2 52102  53.2163 127.3951 0001492  90.8040 269.3123 15.08847830 85998
Source of the keplerian elements: AFSPC